SL-14 DEB, 47083

Orbit data source: Space-Track

SL-14 DEB, 47083 is space debris in LEO originally from a launch on Thu, 15 Aug 1991 UTC launched from the Plesetsk Missile And Space Complex (PKMTR). Debris objects in space refer to the collection of defunct objects orbiting the Earth. Examples of debris include non-operational satellites, rocket bodies, and fragments generated from explosions, collisions, or faulty payload assembly.

Loading next visibility...
Identifier
47083, 1991-056DH
Orbit
LEO
Country
Flag of CISCIS
Related business
Manufacturer
Unknown
Mission
Spacecraft
Bus & Motor
Unknown
Mass
Unknown
Launch date (UTC)
1991-08-15 (34 years ago)
Launch vehicle
Unknown
Launch site
Plesetsk Missile And Space Complex (PKMTR)
Object type
Payload
Rocket body
Debris
Shape & HBR
Unknown shape, 0.1 m
Radar Cross Section
Small (<0.1 m²)

Expand to show TLE details & history
Last TLE update: 9 months ago

TLE from 9 months ago
0 SL-14 DEB
1 47083U 91056DH  25066.42435644  .00066642  00000-0  14014-1 0  9999
2 47083  82.6235 315.0648 0121654 276.3033  82.4322 14.54623720220144
Epoch: 2025-03-07T10:11Z
TLE epoch observation values (Epoch: 2025-03-07T10:11:04.396Z)
Latitude
-0.00003°
Longitude
-3.08843°
Altitude
703.263 km
Speed
7.51 km/s
True Right ascension
21h 00m 15s
True Declination
0° 00' 00"
Sunlit
Object was in daylight at epoch
Visualization orbit readout
Latitude
Unknown
Longitude
Unknown
Altitude
Unknown
Speed
Unknown
Apparent Right ascension
Unknown
Apparent Declination
Unknown
Sunlit
N/A
Visualization observer readout
Local Sidereal Time
13:10:35
Azimuth
Unknown
Elevation
Unknown
Doppler factor
Unknown
Orbital elements
Apogee altitude
793.84 km
Perigee altitude
621.437 km
Semi-major axis
7,085.776 km
Eccentricity
0.01217
Inclination
82.6235°
RAAN
315.0648°
Arg. of periapsis
276.3033°
True anomaly
83.81675°
Mean anomaly
82.4322°
Eccentric anomaly
83.12421°
Mean motion
3.63883 °/min
Orbital period
98.93 mins
BSTAR
0.014014
Loading maneuver chart data...
Computing Atmospheric mass density...
Loading historical data...
Loading historical data...
Loading historical data...
Loading historical data...
Loading historical data...
Loading historical data...
Loading historical data...

Documentation

Showing up to 5 results
|